FW0041 Weather Reports


Display with metric or nautical units.
time (UTC)temp
F
wind
direction
speed
MPH
gust
MPH
rain 1hr
in
rain 24hr
in
rain mn
in
humidity
%
barometer
mb
20260904171514 84 153 1.0 4.0 0.00 0.95 0.00 87 1015.2
20260904170037 83 168 0.0 3.0 0.00 0.95 0.00 88 1015.4
20260904164504 82 97 1.0 3.0 0.00 0.95 0.00 87 1015.6
20260904163033 83 74 1.0 3.0 0.00 0.95 0.00 85 1015.4
20260904161559 82 68 0.0 2.0 0.00 0.95 0.00 84 1015.3
20260904160028 82 68 1.0 3.0 0.00 0.95 0.00 85 1015.5
20260904154543 81 68 0.0 3.0 0.00 0.95 0.00 84 1015.3
20260904153104 80 68 1.0 4.0 0.00 0.95 0.00 85 1015.2
20260904151518 80 68 0.0 3.0 0.00 0.95 0.00 85 1015.2
20260904150039 80 68 0.0 2.0 0.00 0.95 0.00 85 1015.3
20260904144557 79 68 0.0 2.0 0.00 0.95 0.00 85 1015.2
20260904143029 79 68 0.0 2.0 0.00 0.95 0.00 85 1015.2
20260904141540 79 68 0.0 2.0 0.00 0.95 0.00 85 1015.0
20260904140014 78 68 0.0 2.0 0.00 0.95 0.00 85 1014.9
20260904134542 78 68 0.0 1.0 0.00 0.95 0.00 85 1014.8
20260904133101 78 68 0.0 0.0 0.00 0.95 0.00 86 1014.8
20260904131518 78 68 0.0 0.0 0.00 0.95 0.00 86 1014.6
20260904130041 77 68 0.0 0.0 0.00 0.95 0.00 86 1014.5
20260904124512 77 68 0.0 0.0 0.00 0.95 0.00 86 1014.3
20260904123030 77 68 0.0 0.0 0.00 0.95 0.00 86 1014.1
20260904121505 77 68 0.0 0.0 0.00 0.95 0.00 86 1014.0
20260904120031 77 68 0.0 0.0 0.00 0.95 0.00 86 1013.8
20260904114600 77 68 0.0 0.0 0.00 0.96 0.00 86 1013.8
20260904113011 77 68 0.0 0.0 0.00 0.96 0.00 86 1013.8
20260904111542 77 68 0.0 0.0 0.00 0.96 0.00 86 1013.8
20260904110019 77 68 0.0 0.0 0.00 0.96 0.00 86 1013.7
20260904104606 78 68 0.0 0.0 0.00 0.96 0.00 86 1013.5
20260904103018 78 68 0.0 0.0 0.00 0.96 0.00 86 1013.3
20260904101551 78 68 0.0 0.0 0.00 0.96 0.00 86 1013.3
20260904100020 78 68 0.0 0.0 0.00 0.96 0.00 86 1013.3
20260904094558 78 68 0.0 0.0 0.00 0.96 0.00 87 1013.1
20260904093024 78 68 0.0 0.0 0.00 0.96 0.00 87 1013.1
20260904091554 78 68 0.0 0.0 0.00 0.96 0.00 87 1013.0
20260904090029 78 68 0.0 0.0 0.00 0.96 0.00 87 1013.0
20260904084557 78 68 0.0 0.0 0.00 0.96 0.00 87 1012.8
20260904084505 78 68 0.0 0.0 0.00 0.96 0.00 87 1012.9
20260904083020 78 68 0.0 1.0 0.00 0.96 0.00 87 1013.1
20260904081556 78 68 0.0 0.0 0.00 0.96 0.00 87 1013.1
20260904080016 78 68 0.0 0.0 0.00 0.96 0.00 87 1013.0
20260904074543 78 68 0.0 0.0 0.00 0.96 0.00 87 1013.0
20260904073018 78 68 0.0 0.0 0.00 0.96 0.00 87 1013.2
20260904071540 78 68 0.0 1.0 0.00 0.96 0.00 87 1013.3
20260904070100 78 68 0.0 0.0 0.00 0.96 0.00 87 1013.4
20260904070002 78 68 0.0 0.0 0.00 0.96 0.00 87 1013.4
20260904064529 78 68 0.0 0.0 0.00 0.96 0.00 87 1013.4
20260904063054 78 68 0.0 0.0 0.00 0.96 0.00 87 1013.2
20260904061532 78 68 0.0 0.0 0.00 0.96 0.00 87 1013.4
20260904060117 78 68 0.0 0.0 0.00 0.96 0.00 87 1013.4
20260904060003 78 68 0.0 0.0 0.00 0.96 0.00 87 1013.4
20260904054525 78 68 0.0 0.0 0.00 1.07 0.00 87 1013.4
20260904053144 78 68 0.0 0.0 0.00 1.07 0.00 87 1013.3
20260904051524 78 68 0.0 1.0 0.00 1.07 0.00 87 1013.3
20260904044606 78 68 0.0 0.0 0.00 1.07 1.07 87 1013.3
20260904044501 78 68 0.0 0.0 0.00 1.07 1.07 87 1013.3
20260904043013 78 68 0.0 0.0 0.00 1.07 1.07 87 1013.3
20260904041546 78 68 0.0 0.0 0.00 1.07 1.07 87 1013.3
20260904040017 77 68 0.0 0.0 0.00 1.07 1.07 87 1013.3
20260904034542 77 68 0.0 0.0 0.00 1.07 1.07 87 1013.3
20260904033016 77 68 0.0 0.0 0.00 1.07 1.07 88 1013.3
20260904031548 77 68 0.0 0.0 0.00 1.07 1.07 88 1013.4
20260904030024 77 68 0.0 0.0 0.00 1.07 1.07 88 1013.4
20260904024606 77 68 0.0 0.0 0.00 1.07 1.07 88 1013.3
20260904023022 77 68 0.0 0.0 0.00 1.07 1.07 88 1013.2
20260904021548 77 68 0.0 0.0 0.00 1.07 1.07 88 1012.8
20260904020022 77 68 0.0 0.0 0.00 1.07 1.07 88 1012.6
20260904014605 77 68 0.0 0.0 0.00 1.10 1.07 88 1012.5
20260904013034 77 68 0.0 0.0 0.00 1.10 1.07 88 1012.5
20260904011556 77 68 0.0 1.0 0.00 1.10 1.07 88 1012.3
20260904010022 77 68 0.0 0.0 0.00 1.10 1.07 88 1012.4
20260904004556 77 68 0.0 1.0 0.00 1.32 1.07 88 1012.3
20260904003022 77 68 0.0 0.0 0.00 1.32 1.07 88 1012.3
20260904001600 78 68 0.0 0.0 0.00 1.32 1.07 88 1012.5
20260904000014 78 68 0.0 0.0 0.00 1.32 1.07 88 1012.7
20260903234542 78 68 0.0 0.0 0.00 1.33 1.07 88 1012.6
20260903233011 78 68 0.0 0.0 0.00 1.33 1.07 88 1012.6
20260903231540 77 68 0.0 0.0 0.00 1.33 1.07 88 1012.7
20260903230112 77 68 0.0 0.0 0.00 1.33 1.07 88 1012.6
20260903230012 77 68 0.0 0.0 0.00 1.33 1.07 88 1012.7
20260903224536 77 68 0.0 2.0 0.00 1.38 1.07 88 1012.6
20260903223130 77 68 0.0 0.0 0.00 1.38 1.07 88 1012.8
20260903221516 77 68 0.0 1.0 0.00 1.38 1.07 88 1012.8
20260903220042 77 68 0.0 0.0 0.00 1.38 1.07 88 1013.2
20260903214509 77 68 0.0 1.0 0.01 1.39 1.07 88 1013.3
20260903213059 77 68 0.0 0.0 0.02 1.39 1.07 88 1013.3
20260903211512 77 68 0.0 0.0 0.04 1.39 1.07 88 1013.6
20260903210104 76 61 0.0 0.0 0.06 1.39 1.07 88 1013.9
20260903204504 76 61 0.0 0.0 0.06 1.39 1.06 89 1014.1
20260903203037 76 62 0.0 0.0 0.06 1.38 1.05 89 1014.2
20260903201508 76 62 0.0 0.0 0.06 1.36 1.03 89 1014.4
20260903200040 76 62 0.0 0.0 0.05 1.34 1.01 89 1014.4
20260903194504 75 62 0.0 0.0 0.04 1.33 1.00 89 1014.1
20260903193031 75 62 0.0 0.0 0.04 1.32 0.99 89 1014.2
20260903191555 75 62 0.0 0.0 0.02 1.30 0.97 89 1014.3
20260903190024 75 62 0.0 0.0 0.08 1.29 0.96 89 1014.7
20260903184555 75 62 0.0 0.0 0.69 1.29 0.96 89 1015.2
20260903183015 75 62 0.0 3.0 0.83 1.28 0.95 89 1015.1
20260903181539 76 63 1.0 3.0 0.83 1.28 0.95 89 1015.0
20260903180007 76 72 1.0 6.0 0.76 1.21 0.89 89 1015.5
20260903174529 79 124 1.0 4.0 0.15 0.60 0.27 89 1015.2
20260903173049 81 5 0.0 6.0 0.00 0.45 0.12 88 1015.2